Regional Weather Roundup
Issued by NWS State College, PA

Home | Current Version | Previous Version | Graphics & Text | Print | Product List | Glossary Off
Versions: 1 2 3 4 5 6 7 8 9 10 11 12 13 14 15 16 17 18 19 20 21 22 23 24 25 26 27 28 29 30 31 32 33 34 35 36 37 38 39 40 41 42 43 44 45 46 47 48 49 50

000
ASUS41 KCTP 300703
RWRCTP

REGIONAL WEATHER ROUNDUP
NATIONAL WEATHER SERVICE STATE COLLEGE PA
300 AM EDT TUE JUN 30 2015

Note: "fair" indicates few or no clouds below 12,000 feet with no
significant weather and/or obstructions to visibility.

* = STATION THAT DOES NOT REPORT PRECIPITATION /E.G. RAIN...SNOW...ETC/
    THUNDER OR FOG.

PAZ002>004-007>009-013>016-020>023-029>032-300800-
WESTERN PENNSYLVANIA

CITY           SKY/WX    TMP DP  RH WIND       PRES   REMARKS
ERIE           LGT RAIN  63  59  87 NE7       29.83F
MEADVILLE      CLOUDY    61  57  87 VRB3      29.84F
FRANKLIN*      CLOUDY    59  55  88 SE6       29.86F
NEW CASTLE     PTSUNNY   61  60  96 CALM      29.84F
BEAVER COUNTY  NOT AVBL
BUTLER*        CLOUDY    61  59  94 CALM      29.86F
PITTSBURGH INT MOCLDY    63  61  93 E3        29.83F
PITTSBURGH     MOCLDY    62  58  86 S5        29.83F
INDIANA*       CLOUDY    63  61  94 CALM      29.90S
LATROBE        NOT AVBL
WASHINGTON CO* NOT AVBL
$$

PAZ004>006-010>012-017>019-024>028-033>037-041-042-045-046-049>053-300800-
CENTRAL PENNSYLVANIA

CITY           SKY/WX    TMP DP  RH WIND       PRES   REMARKS
BRADFORD       LGT RAIN  58  55  90 SE8       29.90F
DUBOIS         CLOUDY    61  57  87 SE7       29.88F
CLEARFIELD     LGT RAIN  60  58  92 NE5       29.90F
JOHNSTOWN      CLOUDY    65  55  70 S9        29.90F
ALTOONA        CLOUDY    67  57  70 S7        29.90F
STATE COLLEGE  CLOUDY    61  60  96 N3        29.90F
WILLIAMSPORT   CLOUDY    65  60  84 CALM      29.90F
SELINSGROVE    CLOUDY    65  62  90 CALM      29.91F
FT INDIANTOWN  MOCLDY    62  60  92 NE3       29.92F
CAPITAL CITY   CLOUDY    71  57  61 SE8       29.90F
HARRISBURG     MOCLDY    69  59  70 SE5       29.90F
YORK           PTCLDY    69  60  73 VRB3      29.91F
$$

PAZ038>040-043-044-047-048-054-055-060>062-067>071-300800-
EASTERN PENNSYLVANIA

CITY           SKY/WX    TMP DP  RH WIND       PRES   REMARKS
SCRANTON       CLOUDY    66  59  78 E3        29.94F
MOUNT POCONO   CLOUDY    59  56  89 CALM      29.99F
ALLENTOWN      CLOUDY    62  59  90 CALM      29.95S
QUAKERTOWN*    CLOUDY    59  59 100 CALM      29.96F
READING        CLOUDY    64  59  83 CALM      29.93S
LANCASTER      CLOUDY    63  60  90 E5        29.93F
COATESVILLE    MOSUNNY   64  61  88 CALM      29.96F
POTTSTOWN      CLOUDY    63  60  90 CALM      29.96F
BLUE BELL      PTCLDY    61  61 100 CALM      29.95F
DOYLESTOWN     CLOUDY    61  59  93 S3        29.95F
WILLOW GROVE   NOT AVBL
NORTH PHILA    CLOUDY    65  57  75 CALM      29.97S
PHILADELPHIA   CLEAR     69  59  70 S3        29.96S
$$



USA.gov is the U.S. government's official web portal to all federal, state and local government web resources and services.